Tracking 35274 objects as of 12-Sep-2026
HD Live streaming from Space Station
objects crossing your sky now

STARLINK-32235

Track STARLINK-32235 now!
10-day predictions
STARLINK-32235 is classified as:


NORAD ID: 60739
Int'l Code: 2024-152V
Launch date: August 28, 2024
Source: United States (US)
Launch site: AIR FORCE EASTERN TEST RANGE (AFETR)
Your satellite tracking list
Your tracking list is empty




NASA's NSSDC Master Catalog

Two Line Element Set (TLE):
1 60739U 24152V   26254.90352343 -.00000833  00000-0 -13539-4 0  9998
2 60739  53.1584 121.8811 0001140  73.2447 286.8681 15.34394262115339
Source of the keplerian elements: AFSPC